GFSFLT1_sfc_temp_336.txt.gz
Temp
99 100 102 101 101 101 100 98 96 94 91 88 88 89 89 88 88 92 92 91 94 95 96 97 93 90 91 89 88 88 87 89 89
98 99 100 101 103 103 102 98 96 95 92 89 89 91 89 88 88 88 92 91 92 95 93 95 91 91 89 89 88 88 86 89 86
98 100 100 103 102 103 103 102 100 97 94 90 90 92 91 91 90 88 89 91 89 91 93 92 91 90 90 89 88 87 85 88 86
95 99 101 103 103 101 102 102 101 97 94 89 80 78 82 84 90 91 90 90 90 90 91 90 89 88 88 88 87 87 85 86 87
94 96 100 101 102 100 100 98 98 94 90 87 78 82 81 82 86 88 92 91 91 92 90 90 89 89 88 88 87 87 85 84 87
92 93 95 99 99 96 96 95 91 89 88 89 87 89 87 89 87 90 90 91 90 91 90 89 89 88 87 87 87 87 86 86 85
95 94 95 96 96 96 94 91 88 87 88 91 89 90 89 87 86 89 89 89 89 90 89 88 87 87 86 87 88 87 88 87 85
93 94 96 96 96 93 91 89 88 87 88 88 88 87 87 86 86 87 87 87 88 88 87 88 88 87 87 88 88 90 87 87 85
92 93 94 93 91 90 90 89 88 87 87 86 86 86 86 88 87 87 87 86 86 86 86 87 87 87 87 87 91 79 76 83 85
92 91 91 90 91 93 92 91 89 88 88 88 86 86 87 87 87 87 87 88 87 86 86 88 86 86 87 86 87 73 72 74 78
93 92 91 91 95 96 96 98 93 90 90 89 88 88 89 89 89 89 88 88 87 86 84 84 84 86 85 85 87 69 68 71 69
95 94 93 95 97 99 95 93 92 91 91 90 90 89 89 89 90 90 89 88 88 88 88 86 84 84 84 83 85 65 66 69 70
95 96 97 97 99 99 98 96 96 92 91 91 89 90 90 90 89 89 88 88 87 87 88 88 86 86 85 79 84 63 64 67 71
97 96 95 98 98 98 96 96 96 93 93 92 93 93 91 89 89 87 87 86 86 86 86 86 86 86 84 82 80 78 62 63 71
94 93 95 97 96 96 97 95 94 92 91 93 92 91 90 88 88 90 90 86 86 86 85 84 84 84 85 90 82 68 61 60 64
94 94 95 97 95 94 95 93 93 91 91 90 89 88 87 87 87 87 86 84 84 87 88 88 87 89 88 89 90 84 62 59 60
94 95 95 97 94 93 88 89 89 89 87 87 86 86 87 87 86 84 86 89 92 91 91 89 89 89 89 90 90 88 84 74 64
93 93 94 94 91 89 88 88 87 87 86 87 88 87 88 87 90 88 87 88 90 89 88 83 87 88 88 88 87 87 75 75 79
89 88 89 88 88 88 86 86 85 85 86 86 85 85 89 88 88 89 89 89 88 67 61 59 57 55 65 83 67 55 54 53 53
77 86 85 85 84 84 84 84 84 84 84 84 83 82 84 87 82 87 87 86 86 84 80 55 53 51 52 51 57 50 48 47 49

GFSFLT1_sfc_temp_339.txt.gz
Temp
104 104 106 105 104 104 103 102 101 99 95 91 91 91 90 90 90 93 93 93 95 97 98 86 93 93 93 92 90 90 89 90 90
102 104 105 106 107 107 105 102 101 99 95 92 91 93 90 90 90 90 94 94 94 96 95 98 94 93 92 91 90 89 88 89 88
103 105 105 107 107 107 107 106 104 101 97 93 93 95 93 92 91 90 91 92 91 93 95 95 93 92 92 91 89 89 87 90 88
104 105 105 107 107 107 108 106 103 101 98 95 93 95 93 93 92 93 92 92 91 91 92 92 91 90 90 90 90 89 87 87 89
103 106 107 107 108 107 107 104 102 100 97 96 94 95 89 90 92 91 92 92 93 94 91 92 91 90 89 89 89 89 86 86 89
99 101 104 106 107 103 104 102 97 97 95 95 94 89 91 92 86 87 89 92 93 93 92 91 91 90 88 88 89 89 89 87 87
99 99 100 104 104 102 100 98 94 93 92 94 93 94 92 92 91 90 91 92 92 93 91 90 90 89 89 89 89 89 89 88 85
98 98 101 100 100 98 96 93 91 91 91 91 91 89 89 89 89 90 90 90 90 90 90 90 89 89 89 89 89 91 89 89 87
96 96 98 98 96 94 93 91 90 90 90 89 90 88 88 89 87 88 88 88 88 87 87 88 88 88 88 88 92 81 77 84 84
97 97 96 94 94 95 95 93 91 90 89 90 89 89 90 90 89 89 88 87 85 84 84 85 87 88 88 87 88 77 73 74 69
97 96 94 94 97 98 98 99 96 92 92 90 90 90 90 90 91 90 91 90 89 89 89 87 85 86 86 84 85 73 69 71 69
98 97 97 99 101 101 96 95 93 92 92 91 91 90 90 91 92 91 91 90 90 90 89 89 88 88 87 86 87 70 66 69 71
99 99 100 100 101 99 95 97 96 93 91 91 90 90 91 91 91 91 90 89 88 89 89 89 93 91 90 83 86 64 64 69 77
100 100 100 102 100 99 97 98 97 94 94 92 93 94 91 91 91 89 90 89 89 88 87 87 86 87 88 88 86 82 62 62 78
98 97 100 101 99 97 99 98 96 95 93 95 94 92 91 90 89 92 93 88 87 87 86 85 85 85 87 91 89 70 61 61 63
98 98 99 101 99 96 97 97 97 94 93 94 93 91 89 89 89 89 88 86 85 87 86 88 89 92 91 93 95 92 62 60 60
97 98 98 100 98 97 95 95 94 93 94 91 91 89 88 89 87 87 88 91 92 92 91 90 89 89 90 92 93 94 87 80 71
96 96 98 99 96 95 92 91 91 92 89 88 87 88 89 89 91 88 90 89 92 91 89 85 87 87 87 87 87 85 68 72 80
95 94 94 94 94 92 91 89 88 88 89 88 87 87 89 90 90 91 91 91 90 75 65 63 57 56 68 85 70 59 53 51 52
81 90 89 89 88 88 87 86 86 86 86 87 85 84 86 89 84 89 89 89 88 85 83 57 54 51 52 51 57 52 50 50 49

GFSFLT1_sfc_temp_342.txt.gz
Temp
101 101 102 102 102 102 99 99 97 95 88 86 88 87 87 86 87 88 88 88 88 90 85 86 84 85 85 86 86 86 85 84 83
100 101 102 103 103 104 103 99 96 95 89 87 88 89 86 86 86 86 88 87 88 89 88 85 78 85 86 87 86 86 84 83 81
101 103 103 104 104 104 104 103 101 97 92 88 89 90 88 88 88 87 86 88 87 89 91 91 86 87 88 86 86 85 84 83 83
102 103 104 105 105 105 104 102 101 99 94 92 90 90 89 88 88 88 88 88 89 88 90 89 89 88 87 86 85 84 83 83 84
103 105 105 106 106 105 102 100 98 95 94 94 91 91 89 89 89 87 89 87 88 89 87 88 88 88 86 85 86 84 83 83 84
101 102 104 105 106 102 101 98 90 90 93 94 93 90 89 89 88 89 89 88 87 90 87 87 88 86 85 85 85 85 85 83 83
99 99 102 104 105 102 99 93 90 85 91 92 91 88 88 86 84 84 85 85 87 89 88 88 87 86 85 85 85 85 85 84 83
97 98 100 101 100 96 93 90 89 89 89 88 89 86 86 86 87 86 86 88 89 89 88 88 86 86 86 86 86 87 84 85 82
95 96 98 97 93 92 92 89 89 88 87 87 86 86 86 87 87 87 87 87 86 86 86 85 85 85 85 84 88 81 77 80 69
95 96 95 92 92 93 91 90 87 87 87 88 87 87 87 86 85 85 85 86 85 84 83 83 82 82 82 82 82 75 71 71 69
97 96 93 91 94 95 93 93 90 87 88 86 86 86 87 87 86 86 86 87 87 88 87 86 85 85 85 83 83 73 67 70 69
99 95 94 95 98 97 91 89 88 88 87 87 87 86 86 87 87 87 87 88 87 88 86 86 85 85 84 83 83 70 65 68 70
98 97 97 98 99 96 93 91 91 88 87 86 85 86 87 88 88 88 88 88 87 87 86 84 86 84 83 80 83 64 64 69 75
98 98 98 99 96 93 92 91 91 88 88 87 89 90 89 88 89 88 88 87 87 86 84 84 82 82 83 83 81 78 62 63 77
96 95 96 97 94 92 93 91 90 88 87 89 88 87 87 88 89 88 88 87 85 84 82 81 80 79 81 85 82 71 62 61 63
96 97 96 97 93 92 92 92 92 90 87 88 87 87 86 87 89 88 86 84 82 82 81 81 80 81 81 83 86 82 61 59 60
96 97 97 97 94 92 88 91 92 90 90 88 87 86 87 87 85 83 84 86 85 85 83 82 82 81 80 81 82 75 78 77 71
95 95 96 92 87 89 88 88 89 90 87 88 88 87 86 86 87 85 84 84 85 84 84 80 81 81 81 80 79 79 63 66 75
93 94 95 92 87 85 88 86 84 85 87 87 87 86 86 84 85 86 85 85 84 71 65 63 62 60 64 80 67 60 51 49 49
79 88 88 85 84 84 83 83 83 85 85 85 84 83 83 85 81 84 83 83 82 79 79 65 59 56 51 50 52 49 47 47 48

GFSFLT1_sfc_temp_345.txt.gz
Temp
86 88 90 92 91 92 90 90 88 86 82 82 82 81 81 79 79 78 77 80 79 78 79 77 78 77 78 79 79 79 77 76 76
83 88 92 92 90 92 90 90 87 86 83 82 82 83 78 78 79 79 78 80 80 79 81 79 72 75 78 79 79 79 77 76 75
84 87 92 94 93 93 92 92 87 86 84 82 82 82 80 80 79 79 79 79 79 80 79 78 75 76 78 79 79 78 77 76 76
86 91 93 94 95 94 93 92 87 85 83 82 80 81 81 80 80 81 79 79 80 80 81 78 77 78 78 78 78 78 77 76 76
86 82 83 85 93 94 93 91 88 85 85 83 82 81 80 81 81 80 80 77 80 81 80 80 79 79 79 78 78 77 77 76 78
75 78 75 78 85 90 92 90 87 86 85 84 83 82 81 82 81 78 79 80 81 81 81 81 81 80 79 79 79 78 79 78 76
81 76 77 81 80 92 89 86 84 84 83 83 81 80 80 79 79 79 79 79 80 80 80 79 79 79 79 79 79 80 79 78 74
87 85 81 80 84 85 83 81 80 82 81 82 81 79 78 77 76 77 76 77 78 79 80 80 79 79 79 79 79 82 79 77 68
85 84 86 83 83 83 83 82 82 82 81 80 80 78 77 78 78 78 77 78 79 79 79 79 79 78 78 78 83 76 71 71 68
84 83 83 83 82 82 82 81 81 79 79 79 78 78 78 78 78 77 78 78 78 78 77 78 77 77 77 77 77 73 70 70 69
85 84 83 83 83 83 82 83 81 81 80 78 78 77 78 78 77 77 78 77 77 77 77 77 77 77 78 77 77 70 68 69 69
84 85 84 86 86 84 83 81 81 81 79 77 77 77 77 78 78 77 77 77 76 76 76 76 75 76 76 76 76 67 66 67 68
68 86 88 88 87 85 83 81 81 79 78 77 76 77 78 79 78 77 76 76 76 76 76 76 76 76 75 74 74 66 64 67 68
72 70 80 87 86 83 82 81 80 76 76 76 78 79 78 78 78 77 77 76 76 76 75 75 74 74 74 75 74 74 62 63 70
70 70 70 83 82 80 79 79 78 77 76 79 79 78 78 77 77 79 79 76 75 75 74 73 72 73 73 73 71 61 61 60 61
63 66 73 81 82 81 80 80 79 77 78 79 78 77 76 77 77 77 77 75 74 73 73 72 75 70 69 70 70 67 60 60 61
70 74 81 86 85 83 80 79 81 80 78 77 77 77 75 73 75 75 75 76 75 73 76 71 71 70 69 69 69 69 68 68 67
72 76 85 79 76 76 78 80 79 79 79 78 76 77 73 75 75 74 74 74 75 76 71 70 70 69 68 68 66 58 54 56 60
81 73 71 70 70 69 74 73 74 75 76 77 74 74 72 69 72 70 72 72 71 65 60 58 55 51 59 69 55 49 47 47 48
73 78 74 67 66 72 74 73 72 74 75 75 75 71 71 71 71 71 70 69 69 68 68 58 59 53 52 50 49 47 45 46 47